When you browse on this site, cookies collect data to enhance your experience and personalize the content and advertising you see.
Visit our Privacy Policy to learn more. By continuing to use the site, you agree to this use of cookies and data.
  • In Portugal
  • List of Countries
  • For 7 days
  • Water Temperature
  • Weather Map
  • Weather Widgets
  • user-avatar
    Login

    Hourly Weather Miranda de Ebro

    Today, 24 August, Saturday

    Time Temperature Precipitation Wind Pressure Humidity
    00:00 +21°C° 0 mm 1 mps 720 mmHg 47%
    01:00 +21°C° 0 mm 1 mps 720 mmHg 49%
    02:00 +20°C° 0 mm 1 mps 720 mmHg 51%
    03:00 +20°C° 0 mm 1 mps 720 mmHg 53%
    04:00 +19°C° 0 mm 1 mps 720 mmHg 54%
    05:00 +19°C° 0 mm 1 mps 720 mmHg 56%
    06:00 +19°C° 0 mm 1 mps 720 mmHg 57%
    07:00 +22°C° 0 mm 1 mps 721 mmHg 49%
    08:00 +25°C° 0 mm 1 mps 721 mmHg 42%
    09:00 +28°C° 0 mm 1 mps 722 mmHg 34%
    10:00 +30°C° 0 mm 2 mps 722 mmHg 30%
    11:00 +32°C° 0 mm 2 mps 721 mmHg 26%
    12:00 +36°C° 0 mm 2 mps 721 mmHg 22%
    13:00 +36°C° 0 mm 2 mps 721 mmHg 21%
    14:00 +36°C° 0 mm 2 mps 721 mmHg 19%
    15:00 +37°C° 0 mm 3 mps 721 mmHg 18%
    16:00 +35°C° 0 mm 3 mps 720 mmHg 24%
    17:00 +33°C° 0 mm 3 mps 720 mmHg 30%
    18:00 +30°C° 0 mm 3 mps 720 mmHg 37%
    19:00 +27°C° 0 mm 3 mps 720 mmHg 50%
    20:00 +24°C° 0 mm 2 mps 720 mmHg 63%
    21:00 +20°C° 0 mm 2 mps 720 mmHg 76%
    22:00 +20°C° 0 mm 1 mps 720 mmHg 80%
    23:00 +19°C° 0 mm 1 mps 720 mmHg 84%

    Tomorrow, 25 August, Sunday

    Time Temperature Precipitation Wind Pressure Humidity
    00:00 +19°C° 0 mm 1 mps 720 mmHg 88%
    01:00 +18°C° 0 mm 1 mps 719 mmHg 89%
    02:00 +18°C° 0 mm 1 mps 719 mmHg 90%
    03:00 +16°C° 0 mm 1 mps 719 mmHg 91%
    04:00 +16°C° 0 mm 1 mps 719 mmHg 90%
    05:00 +16°C° 0 mm 1 mps 719 mmHg 89%
    06:00 +15°C° 0 mm 0 mps 719 mmHg 89%
    07:00 +20°C° 0 mm 1 mps 719 mmHg 76%
    08:00 +23°C° 0 mm 1 mps 720 mmHg 63%
    09:00 +26°C° 0 mm 1 mps 720 mmHg 51%
    10:00 +28°C° 0 mm 2 mps 720 mmHg 44%
    11:00 +31°C° 0 mm 3 mps 720 mmHg 36%
    12:00 +34°C° 0 mm 3 mps 720 mmHg 29%
    13:00 +34°C° 0 mm 4 mps 720 mmHg 29%
    14:00 +35°C° 0 mm 5 mps 720 mmHg 29%
    15:00 +35°C° 0 mm 5 mps 719 mmHg 28%
    16:00 +33°C° 0 mm 5 mps 719 mmHg 36%
    17:00 +29°C° 0 mm 4 mps 719 mmHg 44%
    18:00 +27°C° 0 mm 4 mps 718 mmHg 52%
    19:00 +25°C° 0 mm 3 mps 719 mmHg 64%
    20:00 +21°C° 0 mm 3 mps 719 mmHg 76%
    21:00 +19°C° 0 mm 2 mps 719 mmHg 88%
    22:00 +18°C° 0 mm 2 mps 719 mmHg 89%
    23:00 +19°C° 0 mm 1 mps 719 mmHg 90%

    Day after tomorrow, 26 August, Monday

    Time Temperature Precipitation Wind Pressure Humidity
    00:00 +19°C° 0 mm 1 mps 719 mmHg 91%
    01:00 +19°C° 0 mm 1 mps 719 mmHg 91%
    02:00 +16°C° 0 mm 0 mps 718 mmHg 92%
    03:00 +16°C° 0 mm 0 mps 718 mmHg 92%
    04:00 +16°C° 0 mm 0 mps 718 mmHg 92%
    05:00 +16°C° 0 mm 0 mps 718 mmHg 91%
    06:00 +16°C° 0 mm 0 mps 718 mmHg 91%
    07:00 +20°C° 0 mm 1 mps 718 mmHg 78%
    08:00 +23°C° 0 mm 2 mps 718 mmHg 65%
    09:00 +25°C° 0 mm 2 mps 718 mmHg 52%
    10:00 +27°C° 0 mm 3 mps 718 mmHg 43%
    11:00 +30°C° 0 mm 4 mps 718 mmHg 34%
    12:00 +33°C° 0 mm 5 mps 718 mmHg 25%
    13:00 +33°C° 0 mm 5 mps 718 mmHg 25%
    14:00 +33°C° 0 mm 5 mps 718 mmHg 25%
    15:00 +34°C° 0 mm 5 mps 717 mmHg 25%
    16:00 +30°C° 0.2 mm 4 mps 717 mmHg 35%
    17:00 +27°C° 0.2 mm 3 mps 717 mmHg 45%
    18:00 +25°C° 0.2 mm 3 mps 717 mmHg 56%
    19:00 +23°C° 0.2 mm 2 mps 717 mmHg 65%
    20:00 +20°C° 0.2 mm 2 mps 718 mmHg 74%
    21:00 +20°C° 0.2 mm 1 mps 718 mmHg 83%
    22:00 +19°C° 0 mm 1 mps 718 mmHg 85%
    23:00 +19°C° 0 mm 1 mps 718 mmHg 87%

    27 August, Tuesday

    Time Temperature Precipitation Wind Pressure Humidity
    00:00 +18°C° 0 mm 1 mps 718 mmHg 89%
    01:00 +18°C° 0.1 mm 1 mps 718 mmHg 90%
    02:00 +16°C° 0.1 mm 0 mps 718 mmHg 91%
    03:00 +16°C° 0.1 mm 0 mps 718 mmHg 92%
    04:00 +18°C° 0 mm 1 mps 718 mmHg 92%
    05:00 +18°C° 0 mm 1 mps 718 mmHg 93%
    06:00 +18°C° 0 mm 1 mps 718 mmHg 93%
    07:00 +20°C° 0 mm 1 mps 719 mmHg 82%
    08:00 +22°C° 0 mm 1 mps 719 mmHg 72%
    09:00 +25°C° 0 mm 1 mps 719 mmHg 61%
    10:00 +26°C° 0.1 mm 1 mps 720 mmHg 56%
    11:00 +27°C° 0.1 mm 2 mps 720 mmHg 50%
    12:00 +29°C° 0.1 mm 2 mps 720 mmHg 45%
    13:00 +28°C° 0.4 mm 3 mps 720 mmHg 49%
    14:00 +28°C° 0.4 mm 3 mps 719 mmHg 52%
    15:00 +27°C° 0.4 mm 4 mps 719 mmHg 56%
    16:00 +26°C° 0.7 mm 3 mps 719 mmHg 61%
    17:00 +25°C° 0.7 mm 3 mps 719 mmHg 66%
    18:00 +24°C° 0.7 mm 2 mps 719 mmHg 71%
    19:00 +23°C° 0.1 mm 2 mps 719 mmHg 78%
    20:00 +21°C° 0.1 mm 1 mps 719 mmHg 85%
    21:00 +19°C° 0.1 mm 1 mps 720 mmHg 92%
    22:00 +19°C° 0 mm 1 mps 720 mmHg 93%
    23:00 +16°C° 0 mm 0 mps 720 mmHg 94%

    28 August, Wednesday

    Time Temperature Precipitation Wind Pressure Humidity
    00:00 +16°C° 0 mm 0 mps 720 mmHg 95%
    01:00 +16°C° 0 mm 0 mps 719 mmHg 95%
    02:00 +16°C° 0 mm 0 mps 719 mmHg 95%
    03:00 +15°C° 0 mm 0 mps 719 mmHg 94%
    04:00 +15°C° 0 mm 0 mps 719 mmHg 94%
    05:00 +15°C° 0 mm 0 mps 719 mmHg 94%
    06:00 +15°C° 0 mm 0 mps 719 mmHg 93%
    07:00 +18°C° 0 mm 0 mps 720 mmHg 82%
    08:00 +21°C° 0 mm 0 mps 720 mmHg 71%
    09:00 +23°C° 0 mm 0 mps 720 mmHg 61%
    10:00 +28°C° 0 mm 1 mps 720 mmHg 52%
    11:00 +30°C° 0 mm 1 mps 720 mmHg 43%
    12:00 +32°C° 0 mm 1 mps 720 mmHg 34%
    13:00 +32°C° 0 mm 1 mps 720 mmHg 33%
    14:00 +32°C° 0 mm 2 mps 720 mmHg 32%
    15:00 +32°C° 0 mm 2 mps 720 mmHg 31%
    16:00 +31°C° 0 mm 3 mps 719 mmHg 39%
    17:00 +29°C° 0 mm 3 mps 719 mmHg 46%
    18:00 +28°C° 0 mm 4 mps 719 mmHg 54%
    19:00 +25°C° 0 mm 3 mps 719 mmHg 66%
    20:00 +23°C° 0 mm 2 mps 719 mmHg 77%
    21:00 +20°C° 0 mm 1 mps 719 mmHg 89%
    22:00 +20°C° 0 mm 1 mps 720 mmHg 91%
    23:00 +20°C° 0 mm 1 mps 720 mmHg 92%

    29 August, Thursday

    Time Temperature Precipitation Wind Pressure Humidity
    00:00 +19°C° 0 mm 1 mps 720 mmHg 94%
    01:00 +19°C° 0 mm 1 mps 720 mmHg 94%
    02:00 +19°C° 0 mm 1 mps 720 mmHg 94%
    03:00 +19°C° 0 mm 1 mps 719 mmHg 94%
    04:00 +19°C° 0 mm 1 mps 720 mmHg 93%
    05:00 +19°C° 0 mm 1 mps 720 mmHg 93%
    06:00 +19°C° 0 mm 1 mps 720 mmHg 92%
    07:00 +20°C° 0 mm 1 mps 720 mmHg 87%
    08:00 +21°C° 0 mm 1 mps 720 mmHg 81%
    09:00 +22°C° 0 mm 1 mps 720 mmHg 76%
    10:00 +25°C° 0 mm 1 mps 720 mmHg 67%
    11:00 +27°C° 0 mm 2 mps 720 mmHg 57%
    12:00 +29°C° 0 mm 2 mps 721 mmHg 48%
    13:00 +29°C° 0 mm 3 mps 720 mmHg 49%
    14:00 +29°C° 0 mm 3 mps 720 mmHg 49%
    15:00 +29°C° 0 mm 4 mps 719 mmHg 50%
    16:00 +27°C° 0.1 mm 4 mps 719 mmHg 59%
    17:00 +25°C° 0.1 mm 4 mps 719 mmHg 69%
    18:00 +21°C° 0.1 mm 3 mps 719 mmHg 78%
    19:00 +20°C° 0.1 mm 3 mps 719 mmHg 82%
    20:00 +19°C° 0.1 mm 2 mps 720 mmHg 86%
    21:00 +18°C° 0.1 mm 2 mps 720 mmHg 90%
    22:00 +18°C° 0 mm 2 mps 720 mmHg 90%
    23:00 +18°C° 0 mm 2 mps 720 mmHg 91%
    Show more